Home   Weather   Fredericksburg   Past weeks
Flag for USA

Past Weather in Fredericksburg, Virginia, USA — Yesterday and Last 2 Weeks

Now
30 °F

Clear.


Feels Like: 30 °F
Forecast: 36 / 22 °F
Wind: No wind

Location: Shannon Airport

Current Time: Jan 20, 2020 at 7:32:04 pm

Latest Report: Jan 20, 2020 at 6:55 pm


Visibility: 10 mi

Pressure: 30.42 "Hg

Humidity: 46%

Dew Point: 11 °F

Location of FredericksburgLocation

Past Weather in Fredericksburg — Graph

°F

Fredericksburg Temperature Yesterday

Maximum temperature yesterday: 50 °F (at 12:15 pm)
Minimum temperature yesterday: 30 °F (at 11:55 pm)
Average temperature yesterday: 40 °F

High & Low Weather Summary for the Past Weeks

 TemperatureHumidityPressure
High72 °F (Jan 11, 2:15 pm)100% (Jan 6, 5:35 am)30.78 "Hg (Jan 6, 5:35 am)
Low23 °F (Jan 9, 5:15 am)30% (Jan 8, 2:35 pm)29.73 "Hg (Jan 19, 3:35 am)
Average43 °F77%30.26 "Hg
* Reported Jan 5 6:15 pm — Jan 20 6:15 pm, Fredericksburg. Weather by CustomWeather, © 2020

Note: Actual official high and low records may vary slightly from our data, if they occured in-between our weather recording intervals... More about our weather records

Fredericksburg Weather History for the Previous 24 Hours

Scroll right to see more
 ConditionsComfort  
Time TempWeatherWind HumidityBarometerVisibility
6:15 pm
Mon, Jan 20
31 °FClear.No wind44%30.40 "Hg10 mi
5:55 pm32 °FClear.5 mph40%30.40 "Hg10 mi
5:35 pm32 °FClear.3 mph41%30.39 "Hg10 mi
5:15 pm33 °FSunny.6 mph39%30.39 "Hg10 mi
4:55 pm33 °FSunny.7 mph38%30.38 "Hg10 mi
4:35 pm34 °FSunny.12 mph36%30.38 "Hg10 mi
4:15 pm34 °FSunny.13 mph37%30.38 "Hg10 mi
3:55 pm35 °FSunny.10 mph37%30.37 "Hg10 mi
3:35 pm35 °FSunny.9 mph38%30.37 "Hg10 mi
3:15 pm35 °FSunny.13 mph37%30.37 "Hg10 mi
2:55 pm36 °FSunny.3 mph38%30.36 "Hg10 mi
2:35 pm35 °FSunny.12 mph37%30.36 "Hg10 mi
2:15 pm35 °FSunny.8 mph37%30.36 "Hg10 mi
1:55 pm35 °FSunny.10 mph38%30.36 "Hg10 mi
1:35 pm35 °FSunny.8 mph39%30.37 "Hg10 mi
1:15 pm34 °FSunny.14 mph39%30.37 "Hg10 mi
12:55 pm34 °FSunny.9 mph40%30.37 "Hg10 mi
12:35 pm34 °FSunny.14 mph42%30.38 "Hg10 mi
12:15 pm33 °FSunny.10 mph45%30.38 "Hg10 mi
11:55 am32 °FSunny.13 mph45%30.39 "Hg10 mi
11:35 am32 °FSunny.13 mph45%30.39 "Hg10 mi
11:15 am31 °FSunny.15 mph46%30.40 "Hg10 mi
10:55 am30 °FSunny.9 mph50%30.39 "Hg10 mi
10:35 am30 °FSunny.15 mph50%30.39 "Hg10 mi
10:15 am29 °FSunny.16 mph52%30.39 "Hg10 mi
9:55 am28 °FSunny.17 mph54%30.38 "Hg10 mi
9:35 am28 °FSunny.12 mph56%30.38 "Hg10 mi
9:15 am27 °FSunny.9 mph58%30.37 "Hg10 mi
8:55 am26 °FSunny.15 mph59%30.36 "Hg10 mi
8:35 am26 °FSunny.12 mph60%30.35 "Hg10 mi
8:15 am25 °FSunny.9 mph62%30.35 "Hg10 mi
7:55 am24 °FSunny.6 mph62%30.33 "Hg10 mi
7:35 am24 °FSunny.5 mph63%30.33 "Hg10 mi
7:15 am24 °FClear.12 mph62%30.32 "Hg10 mi
6:55 am24 °FClear.5 mph63%30.31 "Hg10 mi
6:35 am25 °FClear.12 mph62%30.30 "Hg10 mi
6:15 am25 °FClear.9 mph62%30.29 "Hg10 mi
5:55 am25 °FClear.10 mph62%30.27 "Hg10 mi
5:35 am25 °FClear.10 mph62%30.27 "Hg10 mi
5:15 am25 °FClear.12 mph61%30.26 "Hg10 mi
4:55 am25 °FClear.12 mph62%30.25 "Hg10 mi
4:35 am26 °FClear.12 mph61%30.25 "Hg10 mi
4:15 am26 °FClear.12 mph61%30.24 "Hg10 mi
3:35 am26 °FClear.8 mph59%30.23 "Hg10 mi
3:15 am26 °FClear.6 mph61%30.22 "Hg10 mi
2:55 am26 °FClear.8 mph61%30.22 "Hg10 mi
2:35 am27 °FClear.8 mph60%30.23 "Hg10 mi
2:15 am27 °FClear.8 mph60%30.22 "Hg10 mi
1:55 am27 °FClear.7 mph60%30.21 "Hg10 mi
1:35 am28 °FClear.7 mph60%30.21 "Hg10 mi
1:15 am28 °FClear.9 mph59%30.21 "Hg10 mi
12:55 am28 °FClear.17 mph59%30.20 "Hg10 mi
12:35 am29 °FClear.9 mph59%30.21 "Hg10 mi
12:15 am29 °FClear.8 mph60%30.20 "Hg10 mi
11:55 pm
Sun, Jan 19
30 °FClear.12 mph60%30.20 "Hg10 mi
11:35 pm30 °FClear.13 mph60%30.19 "Hg10 mi
11:15 pm31 °FClear.8 mph62%30.19 "Hg10 mi
10:55 pm31 °FClear.3 mph60%30.18 "Hg10 mi
10:35 pm31 °FClear.7 mph58%30.17 "Hg10 mi
10:15 pm32 °FPassing clouds.7 mph57%30.16 "Hg10 mi
9:35 pm31 °FPassing clouds.5 mph62%30.15 "Hg10 mi
9:15 pm31 °FPassing clouds.No wind58%30.15 "Hg10 mi
8:55 pm31 °FPassing clouds.6 mph58%30.14 "Hg10 mi
8:35 pm32 °FClear.No wind56%30.14 "Hg10 mi
8:15 pm32 °FClear.6 mph55%30.13 "Hg10 mi
7:55 pm32 °FClear.5 mph54%30.12 "Hg10 mi
7:35 pm33 °FClear.3 mph52%30.11 "Hg10 mi
7:15 pm34 °FClear.8 mph51%30.11 "Hg10 mi
Weather by CustomWeather, © 2020

See weather overview

Advertising